Location: Copeville
(33.0796°N, 96.4155°W)
Time: 06:52:52
(UTC+00:00)

JUGNU - Pass Details

Date: 23 April 2024
Orbit: 835 x 862 km, 20.0° (Epoch: 19 May)

Event Time Altitude Azimuth Distance (km) Brightness Sun altitude
Rises 02:45:28 0° 249° (WSW) 3,370 ? -20.7°
Reaches altitude 10° 02:48:57 10° 229° (SW) 2,439 ? -21.3°
Maximum altitude 02:52:30 16° 192° (SSW) 2,023 ? -21.9°
Enters shadow 02:52:47 16° 188° (S) 2,027 ? -22.0°
